Weather History for Proserpine, QU

Change the Weather History Date:

Friday, January 31, 2014

  Actual Average Record
Temperature  
Mean Temperature 76 °F -  
Max Temperature 82 °F - - ()
Min Temperature 70 °F - - ()
Cooling Degree Days 11    
Growing Degree Days 26 (Base 50)    
Moisture  
Dew Point 72 °F    
Average Humidity 86    
Maximum Humidity 100    
Minimum Humidity 60    
Precipitation  
Precipitation 0.02 in - - ()
Sea Level Pressure  
Sea Level Pressure 29.43 in    
Wind  
Wind Speed 16 mph ()    
Max Wind Speed 28 mph    
Max Gust Speed 41 mph    
Visibility 5.4 miles    
Events Rain    
T = Trace of Precipitation, MM = Missing Value Source: Averaged Metar Reports

Daily Weather History Graph

Daily Weather History Graph

Search for Another Location

Airport:

Trip Planner

Search our weather history database for the weather conditions in past years. The results will help you decide how hot, cold, wet, or windy it might be!

Date:

Astronomy

Jan. 31, 2014 Rise Set
Actual Time 5:48 AM AEST 6:49 PM AEST
Civil Twilight 5:24 AM AEST 7:13 PM AEST
Nautical Twilight 4:57 AM AEST 7:40 PM AEST
Astronomical Twilight 4:28 AM AEST 8:09 PM AEST
Moon 5:50 AM AEST (1/31) 6:55 PM AEST (1/31)
Length of Visible Light 13h 48m
Length of Day
13h 01m
New Moon, 0% of the Moon is Illuminated
Jan 31
New Moon
Feb 7
First Quarter
Feb 15
Full
Feb 23
Last Quarter
Mar 1
New

Hourly Weather History & Observations

Time (AEST) Temp. Heat Index Dew Point Humidity Pressure Visibility Wind Dir Wind Speed Gust Speed Precip Events Conditions
12:00 AM 72 °F - 71 °F 97% 29.37 in - SSE 21.9 mph - -   Overcast
12:00 AM 71.6 °F - 71.6 °F 100% 29.36 in 6.2 mi SSE 21.9 mph - N/A   Overcast
1:00 AM 77.0 °F - 75.2 °F 94% 29.30 in 1.1 mi ESE 19.6 mph 31.1 mph N/A   Overcast
2:00 AM 77.0 °F - 75.2 °F 94% 29.24 in - ESE 27.6 mph 41.4 mph N/A   Overcast
3:00 AM 76 °F - 75 °F 95% 29.20 in 3 mi ESE 23.0 mph - -   Overcast
3:00 AM 77.0 °F - 75.2 °F 94% 29.18 in 3.1 mi ESE 23.0 mph 39.1 mph N/A   Overcast
4:00 AM 75.2 °F - 75.2 °F 100% 29.12 in 3.1 mi ESE 26.5 mph - N/A   Overcast
5:00 AM 77.0 °F - 75.2 °F 94% 29.09 in 4.3 mi East 19.6 mph - N/A   Overcast
6:00 AM 75 °F - 72 °F 87% 29.21 in - NE 23.0 mph - -   Overcast
6:02 AM 75.2 °F - 71.6 °F 89% 29.21 in 6.2 mi NE 21.9 mph 33.4 mph N/A   Overcast
7:00 AM 73.4 °F - 71.6 °F 94% 29.30 in 3.7 mi North 19.6 mph 31.1 mph N/A   Overcast
8:03 AM 73.4 °F - 71.6 °F 94% 29.39 in 3.7 mi North 18.4 mph 29.9 mph N/A   Overcast
9:00 AM 73 °F - 72 °F 94% 29.46 in 2 mi North 16.1 mph - - Rain Drizzle
9:00 AM 73.4 °F - 71.6 °F 94% 29.44 in 3.1 mi North 16.1 mph - N/A   Overcast
10:00 AM 73.4 °F - 71.6 °F 94% 29.47 in 3.1 mi North 17.3 mph - N/A   Overcast
11:00 AM 73.4 °F - 71.6 °F 94% 29.50 in 6.2 mi North 16.1 mph - N/A   Overcast
12:00 PM 76 °F - 72 °F 82% 29.53 in - North 15.0 mph - -   Overcast
12:00 PM 77.0 °F - 71.6 °F 83% 29.50 in 6.2 mi North 15.0 mph - N/A   Overcast
1:00 PM 80.6 °F 84.6 °F 71.6 °F 74% 29.50 in 6.2 mi North 19.6 mph - N/A   Mostly Cloudy
2:00 PM 82.4 °F 87.2 °F 71.6 °F 70% 29.50 in 6.2 mi NNW 16.1 mph - N/A   Unknown
3:00 PM 82 °F - 71 °F 60% 29.51 in 16 mi North 15.0 mph - -   Partly Cloudy
3:00 PM 82.4 °F 86.3 °F 69.8 °F 66% 29.50 in 6.2 mi North 16.1 mph - N/A   Scattered Clouds
4:00 PM 82.4 °F 87.2 °F 71.6 °F 70% 29.50 in 6.2 mi North 17.3 mph - N/A   Mostly Cloudy
5:00 PM 80.6 °F 84.6 °F 71.6 °F 74% 29.53 in 6.2 mi North 13.8 mph - N/A   Overcast
6:00 PM 80 °F - 72 °F 70% 29.56 in - North 9.2 mph - -   Overcast
6:00 PM 80.6 °F 84.6 °F 71.6 °F 74% 29.56 in 6.2 mi North 9.2 mph - N/A   Overcast
7:00 PM 78.8 °F - 71.6 °F 78% 29.56 in 6.2 mi North 4.6 mph - N/A   Mostly Cloudy
8:00 PM 77.0 °F - 71.6 °F 83% 29.59 in 6.2 mi NNW 3.5 mph - N/A   Mostly Cloudy
9:00 PM 75 °F - 72 °F 86% 29.61 in - Calm Calm - -  
9:00 PM 75.2 °F - 71.6 °F 89% 29.59 in 6.2 mi Calm Calm - N/A   Scattered Clouds
10:00 PM 75.2 °F - 73.4 °F 94% 29.62 in 6.2 mi Calm Calm - N/A   Overcast
11:00 PM 75.2 °F - 73.4 °F 94% 29.62 in 6.2 mi SW 2.3 mph - N/A   Unknown